Time,TemperatureF,DewpointF,PressureIn,WindDirection,WindDirectionDegrees,WindSpeedMPH,WindSpeedGustMPH,Humidity,HourlyPrecipIn,Conditions,Clouds,dailyrainin,SoftwareType,DateUTC
2013-09-12 00:13:00,76.0,68.0,30.09,SE,131,0.0,2.0,76,0.00,,,0.00,,2013-09-12 05:13:00,
2013-09-12 00:23:00,78.0,67.0,30.09,SE,133,0.0,1.0,68,0.00,,,0.00,,2013-09-12 05:23:00,
2013-09-12 00:43:00,78.0,67.0,30.09,SE,134,0.0,0.0,68,0.00,,,0.00,,2013-09-12 05:43:00,
2013-09-12 00:52:00,77.0,66.0,30.08,SSW,204,0.0,1.0,70,0.00,,,0.00,,2013-09-12 05:52:00,
2013-09-12 01:12:00,77.0,67.0,30.08,SSE,147,0.0,1.0,71,0.00,,,0.00,,2013-09-12 06:12:00,
2013-09-12 01:21:00,77.0,67.0,30.08,SE,146,0.0,0.0,72,0.00,,,0.00,,2013-09-12 06:21:00,
2013-09-12 01:42:00,77.0,68.0,30.08,SSE,147,0.0,0.0,74,0.00,,,0.00,,2013-09-12 06:42:00,
2013-09-12 01:52:00,76.0,67.0,30.08,SE,143,0.0,0.0,75,0.00,,,0.00,,2013-09-12 06:52:00,
2013-09-12 02:12:00,77.0,68.0,30.08,South,191,0.0,1.0,74,0.00,,,0.00,,2013-09-12 07:12:00,
2013-09-12 02:22:00,77.0,68.0,30.08,South,184,0.0,2.0,74,0.00,,,0.00,,2013-09-12 07:22:00,
2013-09-12 02:52:00,77.0,68.0,30.08,SE,141,0.0,2.0,74,0.00,,,0.00,,2013-09-12 07:52:00,
2013-09-12 03:11:00,77.0,68.0,30.08,SSW,197,0.0,3.0,74,0.00,,,0.00,,2013-09-12 08:11:00,
2013-09-12 03:22:00,77.0,68.0,30.08,SSW,205,0.0,4.0,75,0.00,,,0.00,,2013-09-12 08:22:00,
2013-09-12 03:52:00,76.0,69.0,30.07,SE,141,0.0,0.0,79,0.00,,,0.00,,2013-09-12 08:52:00,
2013-09-12 04:12:00,74.0,68.0,30.07,SE,141,0.0,0.0,82,0.00,,,0.00,,2013-09-12 09:12:00,
2013-09-12 04:21:00,73.0,68.0,30.07,SE,141,0.0,0.0,84,0.00,,,0.00,,2013-09-12 09:21:00,
2013-09-12 04:53:00,72.0,68.0,30.07,SE,141,0.0,0.0,86,0.00,,,0.00,,2013-09-12 09:53:00,
2013-09-12 05:12:00,72.0,68.0,30.07,SE,141,0.0,0.0,87,0.00,,,0.00,,2013-09-12 10:12:00,
2013-09-12 05:23:00,71.0,67.0,30.07,SE,143,0.0,0.0,88,0.00,,,0.00,,2013-09-12 10:23:00,
2013-09-12 05:53:00,71.0,68.0,30.07,SE,142,0.0,0.0,89,0.00,,,0.00,,2013-09-12 10:53:00,
2013-09-12 06:11:00,71.0,68.0,30.07,SE,143,0.0,0.0,90,0.00,,,0.00,,2013-09-12 11:11:00,
2013-09-12 06:22:00,71.0,68.0,30.07,SE,142,0.0,0.0,90,0.00,,,0.00,,2013-09-12 11:22:00,
2013-09-12 06:52:00,70.0,67.0,30.08,SE,142,0.0,0.0,91,0.00,,,0.00,,2013-09-12 11:52:00,
2013-09-12 07:12:00,70.0,67.0,30.08,SE,143,0.0,0.0,91,0.00,,,0.00,,2013-09-12 12:12:00,
2013-09-12 07:22:00,70.0,68.0,30.08,SE,142,0.0,0.0,92,0.00,,,0.00,,2013-09-12 12:22:00,
2013-09-12 07:52:00,70.0,68.0,30.09,SE,142,0.0,0.0,92,0.00,,,0.00,,2013-09-12 12:52:00,
2013-09-12 08:11:00,70.0,68.0,30.09,SE,142,0.0,0.0,93,0.00,,,0.00,,2013-09-12 13:11:00,
2013-09-12 08:22:00,70.0,68.0,30.09,SE,142,0.0,0.0,93,0.00,,,0.00,,2013-09-12 13:22:00,
2013-09-12 08:52:00,71.0,69.0,30.10,SE,142,0.0,0.0,92,0.00,,,0.00,,2013-09-12 13:52:00,
2013-09-12 09:22:00,74.0,70.0,30.11,NNE,12,0.0,4.0,88,0.00,,,0.00,,2013-09-12 14:22:00,
2013-09-12 09:52:00,78.0,71.0,30.12,NNW,345,1.0,5.0,78,0.00,,,0.00,,2013-09-12 14:52:00,
2013-09-12 10:11:00,79.0,70.0,30.12,North,5,1.0,3.0,75,0.00,,,0.00,,2013-09-12 15:11:00,
2013-09-12 10:22:00,80.0,71.0,30.12,NNW,343,0.0,3.0,74,0.00,,,0.00,,2013-09-12 15:22:00,
2013-09-12 10:53:00,82.0,70.0,30.12,NNW,340,0.0,3.0,67,0.00,,,0.00,,2013-09-12 15:53:00,
2013-09-12 11:23:00,85.0,71.0,30.12,East,99,0.0,1.0,63,0.00,,,0.00,,2013-09-12 16:23:00,
2013-09-12 11:43:00,86.0,71.0,30.12,SSW,205,0.0,1.0,61,0.00,,,0.00,,2013-09-12 16:43:00,
2013-09-12 11:53:00,87.0,70.0,30.12,North,6,1.0,3.0,57,0.00,,,0.00,,2013-09-12 16:53:00,
2013-09-12 12:12:00,88.0,70.0,30.11,NNW,337,1.0,2.0,55,0.00,,,0.00,,2013-09-12 17:12:00,
2013-09-12 12:23:00,90.0,70.0,30.11,WNW,291,0.0,2.0,52,0.00,,,0.00,,2013-09-12 17:23:00,
2013-09-12 12:42:00,91.0,70.0,30.10,North,4,0.0,3.0,50,0.00,,,0.00,,2013-09-12 17:42:00,
2013-09-12 12:53:00,92.0,69.0,30.10,WSW,250,1.0,4.0,48,0.00,,,0.00,,2013-09-12 17:53:00,
2013-09-12 13:12:00,93.0,70.0,30.09,WNW,294,0.0,2.0,48,0.00,,,0.00,,2013-09-12 18:12:00,
2013-09-12 13:22:00,93.0,69.0,30.09,North,4,2.0,4.0,46,0.00,,,0.00,,2013-09-12 18:22:00,
2013-09-12 13:42:00,93.0,70.0,30.09,NNE,25,0.0,2.0,48,0.00,,,0.00,,2013-09-12 18:42:00,
2013-09-12 13:52:00,93.0,69.0,30.08,East,82,0.0,4.0,46,0.00,,,0.00,,2013-09-12 18:52:00,
2013-09-12 14:12:00,94.0,70.0,30.07,North,9,1.0,5.0,46,0.00,,,0.00,,2013-09-12 19:12:00,
2013-09-12 14:22:00,95.0,71.0,30.06,NNE,15,0.0,3.0,46,0.00,,,0.00,,2013-09-12 19:22:00,
2013-09-12 14:52:00,96.0,69.0,30.05,NNE,32,0.0,2.0,42,0.00,,,0.00,,2013-09-12 19:52:00,
2013-09-12 15:11:00,95.0,68.0,30.04,NNW,335,2.0,4.0,42,0.00,,,0.00,,2013-09-12 20:11:00,
2013-09-12 15:22:00,93.0,68.0,30.03,WNW,284,1.0,5.0,45,0.00,,,0.00,,2013-09-12 20:22:00,
2013-09-12 15:42:00,92.0,69.0,30.03,NNE,32,1.0,5.0,47,0.00,,,0.00,,2013-09-12 20:42:00,
2013-09-12 15:52:00,93.0,70.0,30.02,NNE,23,2.0,5.0,47,0.00,,,0.00,,2013-09-12 20:52:00,
2013-09-12 16:22:00,93.0,70.0,30.02,NNE,33,2.0,10.0,48,0.00,,,0.00,,2013-09-12 21:22:00,
2013-09-12 16:54:00,92.0,70.0,30.01,North,359,2.0,6.0,49,0.00,,,0.00,,2013-09-12 21:54:00,
2013-09-12 17:13:00,91.0,70.0,30.01,NNE,16,3.0,7.0,50,0.00,,,0.00,,2013-09-12 22:13:00,
2013-09-12 17:24:00,90.0,71.0,30.01,NNW,335,1.0,5.0,53,0.00,,,0.00,,2013-09-12 22:24:00,
2013-09-12 17:54:00,88.0,70.0,30.03,SSW,193,0.0,3.0,56,0.00,,,0.00,,2013-09-12 22:54:00,
2013-09-12 18:12:00,83.0,69.0,30.03,SSE,163,2.0,10.0,63,0.00,,,0.00,,2013-09-12 23:12:00,
2013-09-12 18:23:00,79.0,69.0,30.04,SSW,201,0.0,9.0,71,0.00,,,0.00,,2013-09-12 23:23:00,
2013-09-12 18:42:00,78.0,67.0,30.04,West,267,0.0,6.0,68,0.00,,,0.00,,2013-09-12 23:42:00,
2013-09-12 18:52:00,78.0,67.0,30.04,WNW,283,0.0,1.0,68,0.00,,,0.00,,2013-09-12 23:52:00,
2013-09-12 19:11:00,78.0,67.0,30.03,WNW,284,0.0,0.0,69,0.00,,,0.00,,2013-09-13 00:11:00,
2013-09-12 19:22:00,78.0,67.0,30.03,WNW,283,0.0,0.0,70,0.00,,,0.00,,2013-09-13 00:22:00,
2013-09-12 19:42:00,78.0,68.0,30.03,North,356,0.0,2.0,71,0.00,,,0.00,,2013-09-13 00:42:00,
2013-09-12 19:52:00,78.0,67.0,30.03,North,357,0.0,0.0,70,0.00,,,0.00,,2013-09-13 00:52:00,
2013-09-12 20:11:00,78.0,68.0,30.03,North,357,0.0,1.0,71,0.00,,,0.00,,2013-09-13 01:11:00,
2013-09-12 20:22:00,77.0,67.0,30.04,North,356,0.0,0.0,72,0.00,,,0.00,,2013-09-13 01:22:00,
2013-09-12 20:42:00,77.0,68.0,30.04,North,356,0.0,0.0,73,0.00,,,0.00,,2013-09-13 01:42:00,
2013-09-12 20:52:00,78.0,69.0,30.04,North,6,0.0,3.0,74,0.00,,,0.00,,2013-09-13 01:52:00,
2013-09-12 21:12:00,81.0,70.0,30.05,NNE,20,0.0,5.0,69,0.00,,,0.00,,2013-09-13 02:12:00,
2013-09-12 21:22:00,82.0,70.0,30.05,NNW,342,1.0,5.0,67,0.00,,,0.00,,2013-09-13 02:22:00,
2013-09-12 21:43:00,82.0,70.0,30.06,NNW,335,0.0,2.0,67,0.00,,,0.00,,2013-09-13 02:43:00,
2013-09-12 21:53:00,81.0,70.0,30.06,NNW,340,1.0,3.0,69,0.00,,,0.00,,2013-09-13 02:53:00,
2013-09-12 22:12:00,81.0,70.0,30.06,NNW,343,1.0,2.0,69,0.00,,,0.00,,2013-09-13 03:12:00,
2013-09-12 22:22:00,80.0,69.0,30.07,North,359,0.0,3.0,70,0.00,,,0.00,,2013-09-13 03:22:00,
2013-09-12 22:55:00,80.0,70.0,30.07,North,351,2.0,5.0,71,0.00,,,0.00,,2013-09-13 03:55:00,
2013-09-12 23:14:00,80.0,70.0,30.07,NNW,338,2.0,5.0,72,0.00,,,0.00,,2013-09-13 04:14:00,
2013-09-12 23:24:00,79.0,70.0,30.07,NNE,30,2.0,5.0,73,0.00,,,0.00,,2013-09-13 04:24:00,
2013-09-12 23:54:00,78.0,69.0,30.07,NNE,18,0.0,3.0,75,0.00,,,0.00,,2013-09-13 04:54:00,